ASA7005 PASI-PAKT

Flight info

Callsign ASA7005
Flight time 0h 32m
Altitude 17000
Route TOKEE1 TOKEE V311 UDENE
Aircraft B736/M-SDE2E3FGHIRWXY/LB1

Departure

Time 2026-04-16 20:46
Airport Sitka Rocky Gutierrez Airport (PASI)

Arrival

Time 2026-04-16 21:18
Airport Ketchikan International Airport (PAKT)
Time Latitude Longitude Altitude Speed Heading
2026-04-16 20:31 57.05278 -135.36658 34 ft 0 kts 45°
2026-04-16 20:40 57.05274 -135.36667 32 ft 4 kts 45°
2026-04-16 20:41 57.05254 -135.36702 33 ft 4 kts 45°
2026-04-16 20:41 57.05236 -135.36735 33 ft 4 kts 42°
2026-04-16 20:41 57.05214 -135.36758 33 ft 4 kts
2026-04-16 20:41 57.05190 -135.36750 34 ft 2 kts 331°
2026-04-16 20:42 57.05185 -135.36744 33 ft 0 kts 331°
2026-04-16 20:43 57.05189 -135.36749 34 ft 2 kts 327°
2026-04-16 20:44 57.05209 -135.36776 33 ft 7 kts 323°
2026-04-16 20:44 57.05256 -135.36859 34 ft 12 kts 317°
2026-04-16 20:44 57.05319 -135.36974 33 ft 13 kts 315°
2026-04-16 20:44 57.05382 -135.37088 34 ft 13 kts 314°
2026-04-16 20:45 57.05376 -135.37229 34 ft 12 kts 229°
2026-04-16 20:45 57.05311 -135.37251 34 ft 6 kts 130°
2026-04-16 20:45 57.05302 -135.37234 35 ft 0 kts 132°
2026-04-16 20:45 57.05169 -135.36984 37 ft 66 kts 136°
2026-04-16 20:46 57.04653 -135.36055 36 ft 137 kts 138°
2026-04-16 20:46 57.03843 -135.34693 361 ft 170 kts 140°
2026-04-16 20:46 57.02947 -135.33172 1139 ft 173 kts 137°
2026-04-16 20:46 57.01927 -135.32013 1935 ft 181 kts 166°
2026-04-16 20:47 57.00584 -135.31960 2561 ft 204 kts 195°
2026-04-16 20:47 56.99326 -135.33021 3572 ft 205 kts 217°
2026-04-16 20:47 56.98098 -135.34594 4307 ft 225 kts 215°
2026-04-16 20:47 56.96722 -135.36269 4791 ft 252 kts 215°
2026-04-16 20:48 56.95246 -135.38030 5878 ft 254 kts 215°
2026-04-16 20:48 56.93749 -135.39806 6895 ft 258 kts 216°
2026-04-16 20:48 56.92182 -135.41518 7319 ft 265 kts 208°
2026-04-16 20:48 56.90386 -135.42488 7473 ft 273 kts 191°
2026-04-16 20:49 56.88455 -135.42415 7625 ft 285 kts 174°
2026-04-16 20:49 56.86556 -135.41347 8539 ft 293 kts 159°
2026-04-16 20:49 56.84726 -135.39600 9525 ft 300 kts 155°
2026-04-16 20:49 56.82857 -135.37767 10367 ft 310 kts 155°
2026-04-16 20:50 56.80865 -135.35840 10721 ft 337 kts 155°
2026-04-16 20:50 56.78744 -135.33806 11419 ft 347 kts 155°
2026-04-16 20:50 56.76633 -135.31755 12437 ft 349 kts 151°
2026-04-16 20:50 56.74804 -135.28818 13399 ft 355 kts 129°
2026-04-16 20:51 56.73286 -135.25252 14437 ft 356 kts 127°
2026-04-16 20:51 56.71790 -135.21625 15444 ft 357 kts 127°
2026-04-16 20:51 56.70305 -135.18025 16430 ft 359 kts 127°
2026-04-16 20:51 56.68781 -135.14360 16870 ft 363 kts 128°
2026-04-16 20:52 56.67249 -135.10706 17007 ft 362 kts 128°
2026-04-16 20:52 56.65716 -135.07071 16986 ft 359 kts 128°
2026-04-16 20:52 56.64185 -135.03468 17021 ft 369 kts 127°
2026-04-16 20:52 56.62555 -134.99625 17014 ft 398 kts 128°
2026-04-16 20:53 56.60856 -134.95652 16999 ft 402 kts 128°
2026-04-16 20:53 56.59134 -134.91624 16968 ft 405 kts 128°
2026-04-16 20:53 56.57405 -134.87580 16970 ft 405 kts 128°
2026-04-16 20:53 56.55671 -134.83531 16982 ft 407 kts 128°
2026-04-16 20:54 56.53925 -134.79468 17064 ft 412 kts 128°
2026-04-16 20:54 56.52155 -134.75361 17714 ft 418 kts 128°
2026-04-16 20:54 56.50371 -134.71218 18774 ft 414 kts 128°
2026-04-16 20:54 56.48590 -134.67091 19124 ft 415 kts 128°
2026-04-16 20:55 56.46824 -134.62996 19232 ft 420 kts 129°
2026-04-16 20:55 56.45023 -134.58840 19229 ft 418 kts 129°
2026-04-16 20:55 56.43225 -134.54700 19231 ft 417 kts 129°
2026-04-16 20:55 56.41435 -134.50581 19230 ft 416 kts 129°
2026-04-16 20:56 56.39641 -134.46460 19226 ft 416 kts 129°
2026-04-16 20:56 56.37874 -134.42409 19225 ft 416 kts 129°
2026-04-16 20:56 56.36943 -134.40273 19231 ft 416 kts 129°
2026-04-16 20:56 56.36759 -134.39853 19228 ft 416 kts 129°
2026-04-16 20:57 56.34960 -134.35735 19223 ft 416 kts 129°
2026-04-16 20:57 56.33166 -134.31636 19224 ft 417 kts 129°
2026-04-16 20:57 56.31364 -134.27527 19234 ft 417 kts 129°
2026-04-16 20:57 56.29584 -134.23477 19224 ft 417 kts 129°
2026-04-16 20:58 56.27777 -134.19383 19237 ft 417 kts 129°
2026-04-16 20:58 56.25969 -134.15278 19224 ft 419 kts 129°
2026-04-16 20:58 56.24168 -134.11166 19196 ft 418 kts 129°
2026-04-16 20:58 56.22356 -134.07054 19221 ft 417 kts 129°
2026-04-16 20:59 56.20566 -134.03023 19232 ft 417 kts 129°
2026-04-16 20:59 56.18740 -133.98918 19223 ft 418 kts 129°
2026-04-16 20:59 56.16919 -133.94829 19225 ft 418 kts 129°
2026-04-16 20:59 56.15120 -133.90794 19240 ft 418 kts 129°
2026-04-16 21:00 56.13300 -133.86713 19220 ft 418 kts 129°
2026-04-16 21:00 56.11482 -133.82644 19222 ft 418 kts 129°
2026-04-16 21:00 56.09661 -133.78573 19229 ft 417 kts 129°
2026-04-16 21:00 56.07859 -133.74553 19236 ft 417 kts 129°
2026-04-16 21:01 56.06037 -133.70494 19239 ft 417 kts 129°
2026-04-16 21:01 56.04214 -133.66437 19233 ft 418 kts 129°
2026-04-16 21:01 56.02388 -133.62382 19239 ft 418 kts 129°
2026-04-16 21:01 56.00560 -133.58333 19249 ft 419 kts 129°
2026-04-16 21:02 55.98746 -133.54318 19239 ft 419 kts 129°
2026-04-16 21:02 55.96914 -133.50270 19239 ft 419 kts 129°
2026-04-16 21:02 55.95077 -133.46214 19237 ft 419 kts 129°
2026-04-16 21:03 55.91403 -133.38131 19240 ft 419 kts 129°
2026-04-16 21:03 55.89593 -133.34168 19034 ft 415 kts 129°
2026-04-16 21:03 55.87772 -133.30195 18622 ft 414 kts 129°
2026-04-16 21:03 55.86037 -133.26121 17846 ft 414 kts 121°
2026-04-16 21:04 55.85131 -133.23100 17323 ft 414 kts 113°
2026-04-16 21:04 55.84044 -133.18379 16538 ft 413 kts 108°
2026-04-16 21:04 55.83117 -133.13547 15902 ft 409 kts 105°
2026-04-16 21:04 55.82245 -133.08754 15327 ft 403 kts 105°
2026-04-16 21:05 55.81391 -133.04096 14783 ft 397 kts 106°
2026-04-16 21:05 55.80520 -132.99464 14263 ft 392 kts 106°
2026-04-16 21:05 55.79643 -132.94896 13689 ft 386 kts 107°
2026-04-16 21:05 55.78770 -132.90407 13123 ft 381 kts 107°
2026-04-16 21:06 55.77912 -132.86036 12589 ft 375 kts 107°
2026-04-16 21:06 55.77042 -132.81684 12040 ft 371 kts 108°
2026-04-16 21:06 55.76145 -132.77407 11488 ft 366 kts 109°
2026-04-16 21:06 55.75245 -132.73193 10963 ft 363 kts 109°
2026-04-16 21:07 55.74351 -132.69026 10447 ft 359 kts 109°
2026-04-16 21:07 55.73484 -132.64982 10232 ft 347 kts 109°
2026-04-16 21:07 55.72642 -132.61055 10055 ft 334 kts 109°
2026-04-16 21:07 55.71835 -132.57280 9955 ft 320 kts 109°
2026-04-16 21:08 55.71063 -132.53679 9914 ft 301 kts 109°
2026-04-16 21:08 55.70319 -132.50203 9231 ft 303 kts 109°
2026-04-16 21:08 55.69581 -132.46756 8794 ft 295 kts 110°
2026-04-16 21:08 55.68867 -132.43435 8425 ft 289 kts 110°
2026-04-16 21:09 55.68154 -132.40114 8087 ft 287 kts 110°
2026-04-16 21:09 55.67442 -132.36808 7739 ft 286 kts 110°
2026-04-16 21:09 55.66735 -132.33527 7395 ft 284 kts 111°
2026-04-16 21:09 55.66028 -132.30257 7062 ft 283 kts 111°
2026-04-16 21:10 55.65325 -132.27002 6711 ft 282 kts 111°
2026-04-16 21:10 55.64631 -132.23800 6389 ft 279 kts 111°
2026-04-16 21:10 55.63870 -132.20707 6255 ft 268 kts 122°
2026-04-16 21:10 55.62822 -132.18067 6147 ft 257 kts 133°
2026-04-16 21:11 55.61583 -132.15893 6100 ft 245 kts 139°
2026-04-16 21:11 55.60329 -132.13855 5999 ft 242 kts 139°
2026-04-16 21:11 55.59117 -132.11871 5770 ft 243 kts 138°
2026-04-16 21:11 55.57881 -132.09732 5312 ft 246 kts 136°
2026-04-16 21:12 55.56658 -132.07586 4912 ft 245 kts 137°
2026-04-16 21:12 55.55483 -132.05557 4800 ft 228 kts 137°
2026-04-16 21:12 55.54366 -132.03636 4661 ft 218 kts 138°
2026-04-16 21:12 55.53302 -132.01812 4591 ft 214 kts 138°
2026-04-16 21:13 55.52232 -131.99980 4419 ft 217 kts 138°
2026-04-16 21:13 55.51156 -131.98143 4155 ft 210 kts 138°
2026-04-16 21:13 55.50131 -131.96388 3881 ft 204 kts 138°
2026-04-16 21:13 55.49128 -131.94667 3609 ft 198 kts 138°
2026-04-16 21:14 55.48152 -131.92992 3348 ft 193 kts 138°
2026-04-16 21:14 55.47200 -131.91359 3093 ft 188 kts 137°
2026-04-16 21:14 55.46278 -131.89778 2852 ft 184 kts 138°
2026-04-16 21:14 55.45364 -131.88211 2614 ft 181 kts 137°
2026-04-16 21:15 55.44462 -131.86662 2376 ft 181 kts 137°
2026-04-16 21:15 55.43568 -131.85128 2136 ft 175 kts 137°
2026-04-16 21:15 55.42733 -131.83692 1899 ft 160 kts 138°
2026-04-16 21:15 55.41997 -131.82425 1733 ft 142 kts 138°
2026-04-16 21:16 55.41321 -131.81265 1527 ft 131 kts 138°
2026-04-16 21:16 55.40670 -131.80149 1370 ft 129 kts 137°
2026-04-16 21:16 55.40041 -131.79069 1205 ft 125 kts 137°
2026-04-16 21:16 55.39415 -131.77997 1018 ft 127 kts 137°
2026-04-16 21:17 55.38792 -131.76920 837 ft 123 kts 135°
2026-04-16 21:17 55.38153 -131.75818 735 ft 132 kts 134°
2026-04-16 21:17 55.37497 -131.74691 506 ft 128 kts 134°
2026-04-16 21:17 55.36858 -131.73597 338 ft 130 kts 134°
2026-04-16 21:18 55.36206 -131.72500 159 ft 127 kts 133°
2026-04-16 21:18 55.35627 -131.71502 99 ft 107 kts 134°
2026-04-16 21:18 55.35198 -131.70760 97 ft 64 kts 136°
2026-04-16 21:18 55.34982 -131.70397 99 ft 21 kts 136°
2026-04-16 21:19 55.34940 -131.70320 98 ft 7 kts 132°
2026-04-16 21:19 55.34889 -131.70229 99 ft 13 kts 143°
2026-04-16 21:19 55.34857 -131.70094 100 ft 13 kts 75°
2026-04-16 21:19 55.34928 -131.70041 100 ft 12 kts 338°
2026-04-16 21:20 55.34995 -131.70132 100 ft 12 kts 318°
2026-04-16 21:20 55.35056 -131.70231 99 ft 12 kts 317°
2026-04-16 21:20 55.35122 -131.70336 94 ft 14 kts 317°
2026-04-16 21:20 55.35212 -131.70479 81 ft 21 kts 317°
2026-04-16 21:21 55.35342 -131.70687 52 ft 29 kts 318°
2026-04-16 21:21 55.35475 -131.70924 40 ft 12 kts 321°
2026-04-16 21:21 55.35524 -131.70999 41 ft 9 kts 329°
2026-04-16 21:21 55.35574 -131.70962 41 ft 8 kts 46°
2026-04-16 21:22 55.35589 -131.70935 41 ft 0 kts 45°